TimePDT,TemperatureF,Dew PointF,Humidity,Sea Level PressureIn,VisibilityMPH,Wind Direction,Wind SpeedMPH,Gust SpeedMPH,PrecipitationIn,Events,Conditions,WindDirDegrees,DateUTC
12:53 AM,61.0,57.0,87,29.89,10.0,NNW,12.7,-,N/A,,Mostly Cloudy,330,2013-08-20 07:53:00
1:15 AM,60.8,57.2,88,29.88,10.0,NW,10.4,19.6,N/A,,Overcast,310,2013-08-20 08:15:00
1:53 AM,60.1,57.0,90,29.87,10.0,NNW,9.2,-,N/A,,Overcast,330,2013-08-20 08:53:00
2:53 AM,60.1,57.0,90,29.86,10.0,NW,6.9,-,N/A,,Overcast,310,2013-08-20 09:53:00
3:53 AM,60.1,57.0,90,29.86,10.0,WNW,9.2,-,N/A,,Overcast,300,2013-08-20 10:53:00
4:53 AM,60.1,57.0,90,29.87,10.0,NW,5.8,-,N/A,,Overcast,310,2013-08-20 11:53:00
5:53 AM,61.0,57.9,90,29.87,10.0,NW,4.6,-,N/A,,Overcast,310,2013-08-20 12:53:00
6:53 AM,61.0,57.9,90,29.88,10.0,Calm,Calm,-,N/A,,Overcast,0,2013-08-20 13:53:00
6:55 AM,60.8,57.2,88,29.88,10.0,Calm,Calm,-,N/A,,Overcast,0,2013-08-20 13:55:00
7:53 AM,62.1,57.9,86,29.90,10.0,NNE,4.6,-,N/A,,Overcast,20,2013-08-20 14:53:00
8:09 AM,62.6,57.2,82,29.89,10.0,NNE,4.6,-,N/A,,Overcast,30,2013-08-20 15:09:00
8:53 AM,59.0,57.9,96,29.90,10.0,Calm,Calm,-,N/A,,Overcast,0,2013-08-20 15:53:00
11:53 AM,68.0,59.0,73,29.90,10.0,North,8.1,-,N/A,,Partly Cloudy,350,2013-08-20 18:53:00
12:53 PM,70.0,59.0,68,29.90,10.0,NW,11.5,-,N/A,,Partly Cloudy,320,2013-08-20 19:53:00
1:53 PM,70.0,59.0,68,29.88,10.0,NW,11.5,-,N/A,,Partly Cloudy,320,2013-08-20 20:53:00
2:53 PM,69.1,59.0,70,29.87,10.0,NW,15.0,-,N/A,,Partly Cloudy,310,2013-08-20 21:53:00
3:53 PM,66.0,60.1,81,29.85,10.0,WNW,17.3,-,N/A,,Partly Cloudy,300,2013-08-20 22:53:00
4:53 PM,64.0,61.0,90,29.84,10.0,NW,13.8,-,N/A,,Partly Cloudy,320,2013-08-20 23:53:00
5:53 PM,62.1,62.1,100,29.85,10.0,NW,15.0,23.0,N/A,,Partly Cloudy,320,2013-08-21 00:53:00
6:53 PM,60.1,60.1,100,29.85,10.0,NW,12.7,-,N/A,,Partly Cloudy,310,2013-08-21 01:53:00
7:53 PM,62.8,57.4,82,29.87,10.0,NW,11.5,-,N/A,,Partly Cloudy,320,2013-08-21 02:53:00
8:53 PM,61.0,56.8,86,29.88,10.0,NW,11.5,-,N/A,,Partly Cloudy,320,2013-08-21 03:53:00
9:53 PM,64.4,57.0,77,29.90,10.0,NW,11.5,-,N/A,,Partly Cloudy,310,2013-08-21 04:53:00
10:53 PM,61.9,57.9,87,29.90,10.0,NNW,9.2,-,N/A,,Partly Cloudy,330,2013-08-21 05:53:00
11:53 PM,59.0,55.0,87,29.91,10.0,NW,9.2,-,N/A,,Scattered Clouds,310,2013-08-21 06:53:00